This is the latest recevied weather packets stored in our database for station/object K5OBH. If no packets are shown the sender has not sent any weather packets the latest 10 day(s).
| Time | Temp. | Humidity | Pressure | Rain* | Wind** | Luminosity | Snow |
|---|---|---|---|---|---|---|---|
| 1778003311 | 14.44° C | 82% | 1006.8 hPa | 0 mm | - | 217 W/m² | - |
| 1778003009 | 13.89° C | 83% | 1006.5 hPa | 0 mm | - | 187 W/m² | - |
| 1778002704 | 13.89° C | 84% | 1006.4 hPa | 0 mm | - | 149 W/m² | - |
| 1778002401 | 13.89° C | 84% | 1006.6 hPa | 0 mm | - | 144 W/m² | - |
| 1778002099 | 14.44° C | 85% | 1006.6 hPa | 0 mm | - | 133 W/m² | - |
| 1778001796 | 14.44° C | 84% | 1006.8 hPa | 0 mm | - | 175 W/m² | - |
| 1778001495 | 14.44° C | 85% | 1006.3 hPa | 0 mm | - | 139 W/m² | - |
| 1778001193 | 14.44° C | 85% | 1006.6 hPa | 0 mm | - | 116 W/m² | - |
| 1778000889 | 14.44° C | 85% | 1006.3 hPa | 0 mm | - | 112 W/m² | - |
| 1778000586 | 14.44° C | 85% | 1006.4 hPa | 0 mm | - | 110 W/m² | - |
| 1778000281 | 14.44° C | 85% | 1006 hPa | 0 mm | - | 118 W/m² | - |
| 1777999977 | 14.44° C | 85% | 1005.8 hPa | 0 mm | - | 108 W/m² | - |
| 1777999673 | 14.44° C | 85% | 1005.7 hPa | 0 mm | - | 96 W/m² | - |
| 1777999371 | 14.44° C | 85% | 1005.7 hPa | 0 mm | - | 105 W/m² | - |
| 1777999069 | 14.44° C | 85% | 1005.5 hPa | 0 mm | - | 119 W/m² | - |
| 1777998767 | 15° C | 86% | 1005.6 hPa | 0 mm | - | 167 W/m² | - |
| 1777998464 | 14.44° C | 85% | 1005.4 hPa | 0 mm | - | 169 W/m² | - |
| 1777998161 | 15° C | 85% | 1005.2 hPa | 0 mm | - | 160 W/m² | - |
| 1777997858 | 15° C | 85% | 1005.2 hPa | 0 mm | - | 153 W/m² | - |
| 1777997556 | 15° C | 87% | 1005 hPa | 0 mm | - | 129 W/m² | - |
| 1777997253 | 15.56° C | 87% | 1004.7 hPa | 0 mm | - | 106 W/m² | - |
| 1777996951 | 15° C | 87% | 1004.8 hPa | 0 mm | - | 105 W/m² | - |
| 1777996647 | 15.56° C | 87% | 1004.6 hPa | 0 mm | - | 88 W/m² | - |
| 1777996343 | 15.56° C | 87% | 1004.3 hPa | 0 mm | - | 117 W/m² | - |
| 1777996039 | 15.56° C | 87% | 1003.9 hPa | 0 mm | - | 96 W/m² | - |
* Rain latest hour (hover to see other rain measurements)
** Current wind speed in m/s (hover to see current wind gust speed)